Starlink 30478

operational
NORAD ID: 57911 Int'l Des: 2023-146 Owner: SPXS Country: US Constellation: starlink
LEOCIRCULAR

关于 Starlink 30478

正在加载描述...

实时位置

正在加载3D地球...

即将过境

高度历史

Altitude vs Time

uPlot chart will show altitude changes over time

两行轨道根数

1 57911U 23146W 26035.32263804 .00000610 00000-0 60270-4 0 9999
2 57911 43.0038 134.0707 0001722 273.1617 86.9029 15.02535752132054
Epoch: Feb 4, 2026 • Age: 25 hours

当前状态

高度 568.3 km
速度 7.58 km/s
星下点 -35.72°S, 167.57°E
发射日期 Sep 20, 2023
运行时间 2.3 years
类型 internet

技术详情

分类 Payload
质量 730.00 kg
干质量 700.00 kg
总质量 730.00 kg
长度 0.30 m
直径 4.10 m
跨度 29.00 m
形状 Box + pan
制造商 SPXS
平台类型 Starlink V2M
阶段状态 In Orbit
所有者/国家 SPXS/US

大型星座

Loading constellations...